Regional Weather Roundup
Issued by NWS Portland, ME

Home | Current Version | Previous Version | Text Only | Print | Product List | Glossary On
Versions: 1 2 3 4 5 6 7 8 9 10 11 12 13 14 15 16 17 18 19 20 21 22 23 24 25 26 27 28 29 30 31 32 33 34 35 36 37 38 39 40 41 42 43 44 45 46 47 48 49 50
000
ASUS41 KGYX 300910
RWRGYX
WEATHER ROUNDUP FOR MAINE AND NEW HAMPSHIRE
NATIONAL WEATHER SERVICE GRAY ME
500 AM EDT TUE AUG 30 2016

MEZ002-005-006-010-012-015-018-020-021-024-026-027-029-301000-
MAINE

CITY           SKY/WX    TMP DP  RH WIND       PRES   REMARKS
PORTLAND       CLOUDY    57  52  83 W3        30.14S
SANFORD        CLEAR     47  46  97 CALM      30.15S
BAR HARBOR     CLEAR     54  52  93 CALM      30.10R
WISCASSET      CLOUDY    53  50  89 CALM      30.14S
ROCKLAND       CLEAR     57  54  89 W5        30.11S
FRYEBURG       PTCLDY    49  47  93 CALM      30.15S
LEWISTONAUBURN CLOUDY    53  51  93 CALM      30.13F
AUGUSTA        CLOUDY    60  54  80 NW7       30.12F
WATERVILLE     PTCLDY    53  52  96 CALM      30.10S
BANGOR         PTCLDY    57  52  83 W3        30.10R
GREENVILLE       N/A     55  50  83 CALM      30.11R
MILLINOCKET    MOCLDY    62  53  72 W6        30.08R
HOULTON        CLOUDY    49  49 100 CALM      30.04R
PRESQUE ISLE   CLOUDY    52  51  97 CALM      30.05S
FRENCHVILLE    CLEAR     56  50  80 NW5       30.05R
CARIBOU        MOCLDY    53  51  93 CALM      30.03S
$$

NHZ002-005-008-009-011-012-014-301000-
NEW HAMPSHIRE

CITY           SKY/WX    TMP DP  RH WIND       PRES   REMARKS
PORTSMOUTH     CLEAR     57  53  88 NW3       30.14S
ROCHESTER      CLEAR     54  51  90 NW5       30.15R
MANCHESTER     PTCLDY    60  53  77 N3        30.15S
CONCORD        CLEAR     51  49  92 CALM      30.16F
LACONIA        CLEAR     55  53  93 W3        30.17S
PLYMOUTH       CLOUDY    48  47  97 CALM      30.18R FOG
BERLIN         FOG       46  44  93 CALM      30.18F VSB 1/4
WHITEFIELD     CLOUDY    45  43  93 CALM      30.19S FOG
JAFFREY        CLEAR     49  46  90 CALM      30.18F
KEENE          CLEAR     50  49  96 CALM      30.19S
LEBANON        FOG       53  51  93 S3        30.19R VSB 3/4
MT WASHINGTON  PTCLDY    45  34  65 W14         N/A
$$

VTZ005-007-008-301000-
VERMONT

CITY           SKY/WX    TMP DP  RH WIND       PRES   REMARKS
ST JOHNSBURY     N/A     54  52  93 MISG      30.17F
MONTPELIER     FOG       50  50 100 CALM      30.22F VSB 1/4
BURLINGTON     PTCLDY    57  53  86 CALM      30.16F
$$

MAZ007-012-024-CTZ003-RIZ002-NYZ038-NYZ072-301000-
SOUTHERN NEW ENGLAND AND NY

CITY           SKY/WX    TMP DP  RH WIND       PRES   REMARKS
BOSTON         CLEAR     65  55  70 NW8       30.16R
WORCESTER      CLEAR     60  51  72 N3        30.18S
NANTUCKET      CLEAR     61  58  90 N7        30.13S
PROVIDENCE     CLEAR     63  54  72 NW6       30.16S
HARTFORD       CLEAR     57  53  86 NW3       30.18S
ALBANY         CLEAR     58  55  90 CALM      30.19R
NEW YORK CITY  PTCLDY    73  61  65 NE9       30.15R
$$

ANZ081-ANZ082-ANZ150-NHZ014-MEZ023>029-301000-
COASTAL MARINE OBSERVATIONS

STATION/POSITION TIME  TEMP    WIND        PRES    WAVE
                       AIR SEA DIR/SP/G            HT/PER
                 (UTC) (F)     (DEG/KT/KT) (MB)    (FT/S)
MOUNT DESERT ROC 0900   61     280/ 13/ 14 1019.0R
MATINICUS ROCK   0900   61     300/ 11/ 11 1019.1F
ISLE OF SHOALS   0900   61     300/  7/  8 1020.6R
JEFFREYS LEDGE   0808      66                N/A     3/13
CASHES LEDGE BUO 0850   65 67  290/  8/ 10 1020.2R   3/13
GEORGES BANK BUO 0750   67 69              1017.6    3/11
$$

.............KEY..............
   WCI - WIND CHILL
   TC  - TEMPERATURE IN CELSIUS
   VSB - VISIBILITY IN MILES
   HX  - HEAT INDEX
   FAIR- INDICATES FEW OR NO CLOUDS BELOW 12,000 FT, WITH NO
         SIGNIFICANT WEATHER AND/OR OBSTRUCTIONS TO VISIBILITY.





USA.gov is the U.S. government's official web portal to all federal, state and local government web resources and services.